Regional Weather Roundup
Issued by NWS Albany, NY

Home | Current Version | Previous Version | Text Only | Print | Product List | Glossary On
Versions: 1 2 3 4 5 6 7 8 9 10 11 12 13 14 15 16 17 18 19 20 21 22 23 24 25 26 27 28 29 30 31 32 33 34 35 36 37 38 39 40 41 42 43 44 45 46 47 48 49
000
ASUS41 KALY 280910
RWRALY

NEW YORK STATE HOURLY WEATHER ROUNDUP
NATIONAL WEATHER SERVICE ALBANY NY
400 AM EST SUN DEC 28 2014

NOTE: "FAIR" INDICATES FEW OR NO CLOUDS BELOW 12,000 FEET WITH NO
SIGNIFICANT WEATHER AND/OR NO OBSTRUCTIONS TO VISIBILITY.

NYZ032-033-038>043-046>054-057>066-NYZ062>081-281000-
EAST


CITY           SKY/WX    TMP DP  RH WIND       PRES   REMARKS
ALBANY         RAIN      44  39  82 E5        29.89F
GLENS FALLS    LGT RAIN  42  39  89 S13       29.85F
POUGHKEEPSIE   CLOUDY    43  36  76 N6        29.88F
MONTGOMERY     CLOUDY    48  31  51 SW7       29.88F
WHITE PLAINS   CLOUDY    47  35  63 SW5       29.90F
ISLIP          MOCLDY    45  41  86 SW8       29.93F
NEW YORK CITY  CLOUDY    47  36  65 S7        29.92F
CENTRAL PARK   CLOUDY    49  35  58 SW9G17    29.94F
$$

NYZ005>009-017-018-044>046-055-056-281000-
CENTRAL


CITY           SKY/WX    TMP DP  RH WIND       PRES   REMARKS
FULTON         RAIN      46  42  86 W17G30    29.84R FOG
SYRACUSE       LGT RAIN  47  43  86 SW9       29.83F
ROME           LGT RAIN  44  42  93 S5        29.85F
ELMIRA         LGT RAIN  46  43  89 W7        29.86F
BINGHAMTON     RAIN      41  40  96 SW9       29.85F FOG
MONTICELLO     CLOUDY    41  36  81 N6        29.89F
$$

NYZ026>034-041>043-281000-
NORTH


CITY           SKY/WX    TMP DP  RH WIND       PRES   REMARKS
WATERTOWN      LGT RAIN  46  40  79 SW16G26   29.80S
FORT DRUM      NOT AVBL
MASSENA        LGT RAIN  47  43  86 SW15G24   29.71F
SARANAC LAKE   LGT RAIN  42  37  82 SW17G24   29.70F
PLATTSBURGH    CLOUDY    44  36  73 S15       29.72F
$$

NYZ001>004-010>016-019>021-281000-
WEST


CITY           SKY/WX    TMP DP  RH WIND       PRES   REMARKS
NIAGARA FALLS  CLOUDY    37  35  92 W10       29.89S WCI  30
BUFFALO        LGT RAIN  39  36  89 W13       29.89F WCI  31
DUNKIRK        LGT RAIN  38  36  92 W8G18     29.93F WCI  32
JAMESTOWN      CLOUDY    34  30  86 W8        29.90R WCI  27
WELLSVILLE     RAIN      42  39  89 SW8       29.85F
ROCHESTER      LGT RAIN  41  38  89 NW17      29.86R
PENN YAN       CLOUDY    46  41  82 SW10      29.84F
$$

             KEY
       WCI = WIND CHILL INDEX
       VSB = VISIBILITY
       HX  = HEAT INDEX
$$


USA.gov is the U.S. government's official web portal to all federal, state and local government web resources and services.